Showing default

GLOBAL-17, 49949

Orbit data source: Space-Track

GLOBAL-17, 49949 is a payload satellite owned by BlackSky Global (US) in LEO that was launched on Thu, 09 Dec 2021 UTC via an ELECTRON launch vehicle from the Rocket Lab Launch Complex (RLLC). Payload-class satellites include a variety of spacecraft equipped with specific instruments for various scientific and technological missions. These include communications satellites like Starlink; space stations such as the ISS; scientific satellites like the Hubble; Earth observation satellites from companies like Planet Labs, Umbra, and HawkEye 360; GPS; miniature CubeSats for education and research; and military/defense satellites.

Loading next visibility...
Identifier
49949, 2021-120A
Orbit
LEO
Country
Flag of USUS
Related business
Manufacturer
LeoStella
Mission
Operational Commercial Imaging
Bus & Motor
BSKY, Unknown motor
Mass
55 kg wet, ~50 kg dry
Launch date (UTC)
2021-12-09 (5 years ago)
Launch vehicle
ELECTRON
Launch site
Rocket Lab Launch Complex (RLLC)
Object type
Payload
Rocket body
Debris
Shape & HBR
Box, 1.0 m
Radar Cross Section
0.625 m², Medium (>0.1 m² and < 1m²)

Expand to show TLE details & history
Last TLE update: 2 days ago

TLE from 2 days ago
0 GLOBAL-17
1 49949U 21120A   26171.30566179  .00024390  00000-0  39125-3 0  9996
2 49949  41.9963  30.7099 0015804 276.3599  83.5446 15.52393462255389
Epoch: 2026-06-20T07:20Z
TLE epoch observation values (Epoch: 2026-06-20T07:20:09.178Z)
Latitude
-0°
Longitude
12.14947°
Altitude
408.211 km
Speed
7.668 km/s
True Right ascension
02h 02m 50s
True Declination
0° 00' 00"
Sunlit
Object was in daylight at epoch
Visualization orbit readout
Latitude
Unknown
Longitude
Unknown
Altitude
Unknown
Speed
Unknown
Apparent Right ascension
Unknown
Apparent Declination
Unknown
Sunlit
N/A
Visualization observer readout
Local Sidereal Time
00:38:49
Azimuth
Unknown
Elevation
Unknown
Doppler factor
Unknown
Orbital elements
Apogee altitude
422.607 km
Perigee altitude
401.145 km
Semi-major axis
6,790.013 km
Eccentricity
0.00158
Inclination
41.9963°
RAAN
30.7099°
Arg. of periapsis
276.3599°
True anomaly
83.72459°
Mean anomaly
83.5446°
Eccentric anomaly
83.63459°
Mean motion
3.87916 °/min
Orbital period
92.8 mins
BSTAR
0.00039125
Loading maneuver chart data...
Computing Atmospheric mass density...
Loading historical data...
Loading historical data...
Loading historical data...
Loading historical data...
Loading historical data...
Loading historical data...
Loading historical data...

Documentation

Showing up to 5 results
|